Location: Newark
(45.5000°N, 11.4167°E)
Time: 06:24:01
(UTC+00:00)

Altair - Pass Details

Date: 29 August 2019
Orbit: 1501 x 1683 km, 47.2° (Epoch: 21 September)

Event Time Altitude Azimuth Distance (km) Brightness Sun altitude
Exits shadow 00:30:45 57° 153° (SSE) 1,859 7.6 -32.4°
Maximum altitude 00:31:04 58° 146° (SSE) 1,854 7.6 -32.4°
Drops below altitude 10° 00:40:25 10° 71° (ENE) 3,785 10.0 -31.8°
Sets 00:43:30 0° 68° (ENE) 4,747 10.7 -31.5°
